Location: Capannuccia
(43.7000°N, 11.3000°E)
Time: 15:32:43
(UTC+00:00)

ERS-2 - Pass Details

Date: 07 June 2020
Orbit: 493 x 499 km, 98.5° (Epoch: 11 July)

Event Time Altitude Azimuth Distance (km) Brightness Sun altitude
Exits shadow 02:49:38 - 186° (S) 2,432 5.2 -7.1°
Reaches altitude 10° 02:51:28 10° 194° (SSW) 1,699 4.3 -6.9°
Maximum altitude 02:54:50 35° 261° (W) 832 2.8 -6.4°
Drops below altitude 10° 02:58:14 10° 328° (NNW) 1,712 5.0 -6.0°
Sets 03:00:27 0° 338° (NNW) 2,600 6.0 -5.7°
